Location: Songkhla
(7.2000°N, 100.6000°E)
Time: 08:07:59
(UTC+07:00)

Aureole 2 - Pass Details

Date: 16 April 2026
Orbit: 297 x 436 km, 73.9° (Epoch: 17 May)

Event Time Altitude Azimuth Distance (km) Brightness Sun altitude
Rises 19:34:52 0° 345° (NNW) 2,346 8.4 -17.5°
Reaches altitude 10° 19:36:58 10° 344° (NNW) 1,458 7.4 -18.0°
Maximum altitude 19:40:09 76° 257° (WSW) 402 4.1 -18.8°
Enters shadow 19:40:53 48° 183° (S) 513 4.5 -19.0°
